Simultaneous Nadir Overpasses (SNOs) Predictions

Prediction of SNOs between GOES-16 and NPP Satellite Orbit:

Table of predicted SNOs for the next 14.0 days since TLE Epoch: 2/19/2022
Index Date Time (GOES-16) GOES-16 Lat,Lon NPP Lat,Lon Distance(km) Time Diff (sec)
1 02/19/2022 18:17:02 0.07, -75.22 0.66, -72.69 288.71 80
2 02/21/2022 06:38:49 -0.07, -75.22 0.57, -77.95 312.43 80
3 02/22/2022 06:17:24 -0.07, -75.22 -0.44, -73.42 204.02 80
4 02/23/2022 18:39:22 0.06, -75.23 -0.71, -78.74 399.86 80
5 02/24/2022 18:23:17 0.06, -75.23 0.30, -74.21 116.80 80
6 02/26/2022 06:45:05 -0.05, -75.23 0.87, -79.48 483.68 80
7 02/27/2022 06:23:41 -0.05, -75.23 -0.14, -74.95 33.18 80
8 03/01/2022 18:26:53 0.04, -75.26 -0.04, -75.72 52.71 80
9 03/02/2022 18:10:48 0.04, -75.27 0.97, -71.19 465.05 80
10 03/04/2022 06:32:37 -0.04, -75.29 0.20, -76.47 133.37 80
